Regional Weather Roundup
Issued by NWS

Home | Current Version | Previous Version | Text Only | Print | Product List | Glossary On
Versions: 1 2 3 4 5 6 7 8 9 10 11 12 13 14 15 16 17 18 19 20 21 22 23 24 25 26 27 28 29 30 31 32 33 34 35 36 37 38 39 40 41 42 43 44 45 46 47 48 49 50
000
ASUS43 KOAX 241410
RWRNE

WEATHER ROUNDUP FOR NEBRASKA
NATIONAL WEATHER SERVICE OMAHA NE
900 AM CDT FRI MAR 24 2017

NOTES: SATELLITE DATA IS BEING USED TO AUGMENT CLOUD COVER ABOVE
       12000 FEET.
       "FAIR" INDICATES FEW OR NO CLOUDS BELOW 12,000 FEET WITH NO
       SIGNIFICANT WEATHER AND/OR OBSTRUCTIONS TO VISIBILITY.

  * THESE STATIONS DO NOT REPORT WEATHER SUCH AS RAIN...SNOW OR FOG.

NEZ001>004-019>022-054>056-241500-
NEBRASKA PANHANDLE

CITY           SKY/WX    TMP DP  RH WIND       PRES   REMARKS
SCOTTSBLUFF    CLOUDY    42  35  76 N14       30.08R
CHADRON        CLOUDY    41  36  82 N8        30.09R
KIMBALL        CLOUDY    38  38  99 N22G31    30.02R WCI  28
SIDNEY         CLOUDY    39  36  89 N28G36    29.97R WCI  28
$$

NEZ057>060-069>072-079>082-241500-
SOUTHWEST NEBRASKA

CITY           SKY/WX    TMP DP  RH WIND       PRES   REMARKS
NORTH PLATTE   LGT RAIN  41  38  89 N24G30    29.92R
IMPERIAL       CLOUDY    42  38  85 N30G44    29.86R
LEXINGTON      LGT SNOW  42  39  89 N24G30    29.87R
MCCOOK         CLOUDY    44  41  89 N35G53    29.76R
OGALLALA       CLOUDY    43  40  88 N28G38    29.91S
$$

NEZ005>010-023>029-035>040-094-241500-
NORTH CENTRAL NEBRASKA

CITY           SKY/WX    TMP DP  RH WIND       PRES   REMARKS
VALENTINE      CLOUDY    41  35  79 N14       30.02R
AINSWORTH      CLOUDY    38  38  99 N18       30.01R FOG     WCI  29
BROKEN BOW     CLOUDY    40  37  89 N32G41    29.90R WCI  28
O`NEILL        LGT RAIN  39  38  97 N20G25    29.95F WCI  30
ORD            CLOUDY    40  36  86 N18       29.91R WCI  31
THEDFORD       DRIZZLE   41  39  93 N15G24    29.98R
$$

NEZ041-046>049-061>064-073>077-083>087-241500-
SOUTH CENTRAL NEBRASKA

CITY           SKY/WX    TMP DP  RH WIND       PRES   REMARKS
GRAND ISLAND   LGT RAIN  43  43 100 N20       29.86S FOG
AURORA         LGT RAIN  45  44  96 N21       29.84R
HASTINGS       CLOUDY    47  43  86 N18       29.84R
HEBRON         CLOUDY    56  55  94 N6        29.78R
HOLDREGE       CLOUDY    44  42  92 NE22G32   29.82S
KEARNEY *      CLOUDY    43  39  87 N21G28    29.86R
YORK           CLOUDY    46  46 100 N25G31    29.84R
$$

NEZ011>018-030>034-042>045-241500-
NORTHEAST NEBRASKA

CITY           SKY/WX    TMP DP  RH WIND       PRES   REMARKS
NORFOLK        CLOUDY    41  39  93 N20G25    29.90R FOG
ALBION         CLOUDY    42  38  86 N18G26    29.89R
BLAIR          CLOUDY    48  47  94 N17G25    29.82S
FREMONT        RAIN      47  46  96 N9        29.86R
TEKAMAH        LGT RAIN  46  43  89 N22       29.86R
WAYNE          CLOUDY    42  41  98 N16G23    29.90R FOG
$$

NEZ050>053-065>068-078-088>093-241500-
SOUTHEAST NEBRASKA

CITY           SKY/WX    TMP DP  RH WIND       PRES   REMARKS
LINCOLN        CLOUDY    51  49  92 N15G26    29.84R
OMAHA EPPLEY   CLOUDY    50  46  86 N15       29.82R FOG
BEATRICE       CLOUDY    58  54  86 E6        29.77R
FALLS CITY     CLOUDY    61  51  70 S7        29.80R
NEBRASKA CITY  RAIN      58  51  77 S3        29.81R
PLATTSMOUTH    LGT RAIN  56  52  86 N9        29.80R
$$

NEZ044-045-051>053-067-241500-
OMAHA AREA

CITY           SKY/WX    TMP DP  RH WIND       PRES   REMARKS
OMAHA EPPLEY   CLOUDY    50  46  86 N15       29.82R FOG
BLAIR          CLOUDY    48  47  94 N17G25    29.82S
FREMONT        RAIN      47  46  96 N9        29.86R
MILLARD        CLOUDY    53  50  90 N8        29.81F
OFFUTT AFB     CLOUDY    54  52  93 N8        29.79S
PLATTSMOUTH    LGT RAIN  56  52  86 N9        29.80R
WAHOO          CLOUDY    48  46  92 N17       29.85R
$$



USA.gov is the U.S. government's official web portal to all federal, state and local government web resources and services.